Tracking 28081 objects as of 27-Sep-2023
HD Live streaming from Space Station
objects crossing your sky now

STARLINK-4727

Track STARLINK-4727 now!
10-day predictions
STARLINK-4727 is classified as:


NORAD ID: 53803
Int'l Code: 2022-111AG
Perigee: 545.7 km
Apogee: 547.9 km
Inclination: 53.2 °
Period: 95.4 minutes
Semi major axis: 6917 km
RCS: Unknown
Launch date: September 11, 2022
Source: United States (US)
Launch site: AIR FORCE EASTERN TEST RANGE (AFETR)
Your satellite tracking list
Your tracking list is empty




NASA's NSSDC Master Catalog

Two Line Element Set (TLE):
1 53803U 22111AG  23269.50495867  .00011151  00000-0  71727-3 0  9998
2 53803  53.2156 307.8069 0001600  99.5536 260.5637 15.08855471 58882
Source of the keplerian elements: AFSPC